Location: *
(46.1006°N, 1.8394°E)
Time: 23:01:11
(UTC+00:00)

Cosmos 1766 - Pass Details

Date: 20 September 2019
Orbit: 521 x 546 km, 82.5° (Epoch: 14 October)

Event Time Altitude Azimuth Distance (km) Brightness Sun altitude
Exits shadow 20:15:22 67° 332° (NNW) 584 3.5 -24.1°
Drops below altitude 10° 20:18:55 10° 6° (N) 1,792 6.2 -24.6°
Sets 20:21:04 0° 8° (N) 2,683 7.1 -25.0°
